User: anonymous   Login
Location: Veyrier
(46.1830°N, 6.2000°E)
Time: 15:02:32
(UTC+01:00)
Language:

Iridium 98 - Orbit

View from above orbital plane
View from above orbital plane
View from above satellite
View from above satellite

Ground track
Ground track

The orbit data is extracted from the following two-line orbital elements,

1 27451U 02031B   16042.55114935  .00000028  00000-0  28631-5 0  9996
2 27451  86.3937 227.6898 0002063  86.6391 329.3986 14.34217699720839
Epoch (UTC): 11 February 2016 13:13:39
Eccentricity: 0.0002063
inclination: 86.3937°
perigee height: 776 km
apogee height: 779 km
right ascension of ascending node: 227.6898°
argument of perigee: 86.6391°
revolutions per day: 14.34217699
mean anomaly at epoch: 329.3986°
orbit number at epoch: 72083

The dashed part of the orbit path shows where the satellite is in the earth's shadow,  

DLR